Location: Cambridge (historical)
(38.6883°N, 119.0140°W)
Time: 17:04:58
(UTC+00:00)

ARGOS Delta rocket - Pass Details

Date: 29 October 2020
Orbit: 636 x 837 km, 96.5° (Epoch: 22 November)

Event Time Altitude Azimuth Distance (km) Brightness Sun altitude
Rises 12:37:16 0° 13° (NNE) 3,362 7.5 -20.6°
Reaches altitude 10° 12:39:38 10° 16° (NNE) 2,440 6.8 -20.2°
Maximum altitude 12:45:05 68° 99° (E) 898 4.5 -19.1°
Drops below altitude 10° 12:50:30 10° 183° (S) 2,433 6.6 -18.1°
Sets 12:52:52 0° 185° (S) 3,353 7.3 -17.6°
